Regional Weather Roundup
Issued by NWS

Home | Current Version | Previous Version | Text Only | Print | Product List | Glossary On
Versions: 1 2 3 4 5 6 7 8 9 10 11 12 13 14 15 16 17 18 19 20 21 22 23 24 25 26 27 28 29 30 31 32 33 34 35 36 37 38 39 40 41 42 43 44 45 46 47 48 49 50
000
ASUS43 KIND 030659
RWRIN

WEATHER ROUNDUP FOR INDIANA
NATIONAL WEATHER SERVICE INDIANAPOLIS IN
200 AM EST FRI DEC 03 2021

NOTE: "FAIR" INDICATES FEW OR NO CLOUDS BELOW 12,000 FEET WITH NO
SIGNIFICANT WEATHER AND/OR OBSTRUCTIONS TO VISIBILITY.

* - STATION DOES NOT REPORT WEATHER SUCH AS PRECIPITATION OR FOG.

+ - STATION NOT QUALITY CONTROLLED BY THE NATIONAL WEATHER SERVICE.
    USE DATA WITH CAUTION...ESPECIALLY DEWPOINT AND RELATIVE
    HUMIDITY OBSERVATIONS.

INZ001>003-010>013-019-020-030800-
NORTHWEST INDIANA

CITY           SKY/WX    TMP DP  RH WIND       PRES   REMARKS
MONTICELLO +   PTCLDY    39  33  78 CALM      30.04F

$$

LMZ046-743>745-030800-
SOUTHERN LAKE MICHIGAN

STATION/POSITION TIME  TEMP    WIND        PRES    WAVE
                       AIR SEA DIR/SP/G            HT
                 (UTC) (F)     (DEG/KT/KT) (MB)    (FT)
BURNS HARBOR     0640   43     170/  3/  4 1017.9R
MICHIGAN CITY    0630   41     150/  5/  5 1018.2F

$$

INZ004-005-014>016-021>024-030800-
NORTH CENTRAL INDIANA

CITY           SKY/WX    TMP DP  RH WIND       PRES   REMARKS
GOSHEN         CLOUDY    37  33  85 CALM      30.03F
SOUTH BEND     CLOUDY    38  33  82 CALM      30.04F

$$

INZ006>009-017-018-025>027-030800-
NORTHEAST INDIANA

CITY           SKY/WX    TMP DP  RH WIND       PRES   REMARKS
ANGOLA *+      CLOUDY    36  34  93 CALM      30.02S
FORT WAYNE     CLOUDY    37  34  89 CALM      30.05R
KENDALLVILLE + CLOUDY    37  33  85 W3        30.05R

$$

INZ028-029-035-036-043>045-051>053-030800-
WEST CENTRAL INDIANA

CITY           SKY/WX    TMP DP  RH WIND       PRES   REMARKS
CRAWFORDSVL +  CLOUDY    32  26  77 CALM      30.06R
LAFAYETTE      PTCLDY    39  33  79 S3        30.04F
TERRE HAUTE    CLEAR     34  33  96 CALM      30.06R

$$

INZ030>032-037>040-046>048-054>057-064-065-030800-
CENTRAL INDIANA

CITY           SKY/WX    TMP DP  RH WIND       PRES   REMARKS
ANDERSON +     CLOUDY    41  31  69 CALM      30.06R
GREENWOOD *+   PTCLDY    37  34  89 CALM      30.07S
INDIANAPOLIS   PTCLDY    41  33  73 E5        30.06R
-EAGLE CREEK   PTCLDY    39  36  89 CALM      30.05S
KOKOMO +       CLOUDY    39  37  92 S5        30.06R WCI  36
SHELBYVILLE    PTCLDY    39  33  79 NE5       30.06R WCI  36

$$

INZ033-034-041-042-049-050-058-059-030800-
EAST CENTRAL INDIANA

CITY           SKY/WX    TMP DP  RH WIND       PRES   REMARKS
MUNCIE         CLOUDY    42  33  70 S5        30.04R
PORTLAND +     CLOUDY    37  32  81 CALM      30.03F
RICHMOND +     CLOUDY    36  36 100 CALM      30.05R

$$

INZ060-061-067>069-081>083-085>088-030800-
SOUTHWEST INDIANA

CITY           SKY/WX    TMP DP  RH WIND       PRES   REMARKS
EVANSVILLE     CLEAR     40  39  97 CALM      30.03F
HUNTINGBURG +  CLEAR     40  39  97 NE3       30.03F

$$

INZ062-063-066-070>080-084-089>092-030800-
SOUTH CENTRAL AND SOUTHEAST INDIANA

CITY           SKY/WX    TMP DP  RH WIND       PRES   REMARKS
BATESVILLE +   CLEAR     36  36 100 CALM      30.05S
BLOOMINGTON    CLEAR     37  34  89 CALM      30.05S
FRENCH LICK *+ PTCLDY    43  37  81 N5        30.04S
MADISON *+     CLEAR     37  37 100 CALM      30.08R

$$




USA.gov is the U.S. government's official web portal to all federal, state and local government web resources and services.